| time (UTC) | temp F | wind direction | speed knots | gust knots | rain 1hr in | rain 24hr in | rain mn in | humidity % | barometer mb |
| 20260506181548 | 84 | 219 | 0.0 | 0.0 | 0.00 | 0.00 | 0.00 | 80 | 1007.4 |
| 20260506180100 | 84 | 256 | 0.0 | 0.0 | 0.00 | 0.00 | 0.00 | 80 | 1007.8 |
| 20260506174545 | 83 | 161 | 0.0 | 0.0 | 0.00 | 0.00 | 0.00 | 82 | 1008.0 |
| 20260506173043 | 83 | 273 | 0.0 | 0.0 | 0.00 | 0.00 | 0.00 | 82 | 1008.3 |
| 20260506171541 | 82 | 205 | 0.0 | 0.0 | 0.00 | 0.00 | 0.00 | 84 | 1008.3 |
| 20260506170041 | 82 | 150 | 0.0 | 0.0 | 0.00 | 0.00 | 0.00 | 85 | 1008.4 |
| 20260506164535 | 81 | 183 | 0.0 | 0.0 | 0.00 | 0.00 | 0.00 | 85 | 1008.5 |
| 20260506163055 | 81 | 160 | 0.0 | 0.0 | 0.00 | 0.00 | 0.00 | 86 | 1008.4 |
| 20260506161533 | 81 | 184 | 0.0 | 0.0 | 0.00 | 0.00 | 0.00 | 86 | 1008.0 |
| 20260506160031 | 81 | 163 | 0.0 | 0.0 | 0.00 | 0.00 | 0.00 | 85 | 1008.0 |
| 20260506154527 | 81 | 147 | 0.0 | 0.0 | 0.00 | 0.00 | 0.00 | 86 | 1007.9 |
| 20260506153024 | 81 | 165 | 0.0 | 0.0 | 0.00 | 0.00 | 0.00 | 86 | 1007.9 |
| 20260506151523 | 81 | 165 | 0.0 | 0.0 | 0.00 | 0.00 | 0.00 | 87 | 1007.5 |
| 20260506150026 | 80 | 204 | 0.0 | 0.0 | 0.00 | 0.00 | 0.00 | 87 | 1007.4 |
| 20260506144520 | 80 | 125 | 0.0 | 0.0 | 0.00 | 0.00 | 0.00 | 88 | 1007.2 |
| 20260506143018 | 80 | 185 | 0.0 | 0.0 | 0.00 | 0.00 | 0.00 | 89 | 1006.9 |
| 20260506141515 | 79 | 115 | 0.0 | 0.0 | 0.00 | 0.00 | 0.00 | 90 | 1007.0 |
| 20260506140013 | 78 | 130 | 0.0 | 0.0 | 0.00 | 0.00 | 0.00 | 92 | 1007.2 |
| 20260506134509 | 78 | 159 | 0.0 | 0.0 | 0.00 | 0.00 | 0.00 | 93 | 1007.2 |
| 20260506133009 | 77 | 161 | 0.0 | 0.0 | 0.00 | 0.00 | 0.00 | 94 | 1007.2 |
| 20260506131513 | 77 | 161 | 0.0 | 0.0 | 0.00 | 0.00 | 0.00 | 94 | 1007.5 |
| 20260506130007 | 77 | 161 | 0.0 | 0.0 | 0.00 | 0.00 | 0.00 | 94 | 1007.3 |
| 20260506124506 | 76 | 130 | 0.0 | 0.0 | 0.00 | 0.00 | 0.00 | 94 | 1007.3 |
| 20260506123005 | 76 | 90 | 0.0 | 0.0 | 0.00 | 0.00 | 0.00 | 94 | 1007.2 |
| 20260506121504 | 76 | 130 | 0.0 | 0.0 | 0.00 | 0.00 | 0.00 | 94 | 1007.1 |
| 20260506120006 | 76 | 130 | 0.0 | 0.0 | 0.00 | 0.00 | 0.00 | 95 | 1006.9 |
| 20260506114504 | 76 | 130 | 0.0 | 0.0 | 0.00 | 0.00 | 0.00 | 94 | 1006.7 |
| 20260506113003 | 76 | 130 | 0.0 | 0.0 | 0.00 | 0.00 | 0.00 | 94 | 1006.6 |
| 20260506111502 | 76 | 151 | 0.0 | 0.0 | 0.00 | 0.00 | 0.00 | 94 | 1006.3 |
| 20260506110002 | 76 | 151 | 0.0 | 0.0 | 0.00 | 0.00 | 0.00 | 94 | 1006.1 |
| 20260506104603 | 76 | 151 | 0.0 | 0.0 | 0.00 | 0.00 | 0.00 | 93 | 1006.1 |
| 20260506104500 | 76 | 150 | 0.0 | 0.0 | 0.00 | 0.00 | 0.00 | 93 | 1006.1 |
| 20260506103100 | 76 | 215 | 0.0 | 0.0 | 0.00 | 0.00 | 0.00 | 93 | 1006.2 |
| 20260506101605 | 76 | 215 | 0.0 | 0.0 | 0.00 | 0.00 | 0.00 | 93 | 1006.1 |
| 20260506100058 | 76 | 148 | 0.0 | 0.0 | 0.00 | 0.00 | 0.00 | 92 | 1005.8 |
| 20260506094622 | 76 | 182 | 0.0 | 0.0 | 0.00 | 0.00 | 0.00 | 92 | 1005.8 |
| 20260506093057 | 76 | 155 | 0.0 | 0.0 | 0.00 | 0.00 | 0.00 | 92 | 1005.7 |
| 20260506091555 | 76 | 163 | 0.0 | 0.0 | 0.00 | 0.00 | 0.00 | 91 | 1005.7 |
| 20260506090053 | 77 | 172 | 0.0 | 0.0 | 0.00 | 0.00 | 0.00 | 91 | 1005.9 |
| 20260506084551 | 77 | 150 | 0.0 | 0.0 | 0.00 | 0.00 | 0.00 | 91 | 1005.9 |
| 20260506083049 | 77 | 159 | 0.0 | 0.0 | 0.00 | 0.00 | 0.00 | 91 | 1006.0 |
| 20260506081548 | 77 | 171 | 0.0 | 0.0 | 0.00 | 0.00 | 0.00 | 91 | 1006.1 |
| 20260506073046 | 77 | 167 | 0.0 | 0.0 | 0.00 | 0.00 | 0.00 | 91 | 1006.5 |
| 20260506071545 | 77 | 166 | 0.0 | 0.0 | 0.00 | 0.00 | 0.00 | 91 | 1006.7 |
| 20260506061539 | 77 | 124 | 0.0 | 0.0 | 0.00 | 0.00 | 0.00 | 90 | 1007.0 |
| 20260506044541 | 78 | 164 | 0.0 | 0.0 | 0.00 | 0.00 | 0.00 | 89 | 1007.0 |
| 20260506043031 | 78 | 165 | 0.0 | 0.0 | 0.00 | 0.00 | 0.00 | 88 | 1007.0 |
| 20260506041531 | 78 | 180 | 0.0 | 0.0 | 0.00 | 0.00 | 0.00 | 87 | 1006.8 |
| 20260506040050 | 79 | 181 | 0.0 | 0.0 | 0.00 | 0.00 | 0.00 | 86 | 1006.6 |
| 20260506034528 | 79 | 150 | 6.1 | 32.2 | 0.00 | 0.00 | 0.00 | 86 | 1006.8 |
| 20260506033029 | 79 | 190 | 2.6 | 29.5 | 0.00 | 0.00 | 0.00 | 86 | 1006.5 |
| 20260506031541 | 79 | 161 | 2.6 | 5.2 | 0.00 | 0.00 | 0.00 | 85 | 1006.1 |
| 20260506030027 | 79 | 86 | 4.3 | 17.4 | 0.00 | 0.00 | 0.00 | 85 | 1006.2 |
| 20260506024529 | 79 | 177 | 4.3 | 20.9 | 0.00 | 0.00 | 0.00 | 85 | 1006.0 |
| 20260506023027 | 79 | 192 | 2.6 | 9.6 | 0.00 | 0.00 | 0.00 | 85 | 1005.7 |
| 20260506021525 | 79 | 166 | 4.3 | 12.2 | 0.00 | 0.00 | 0.00 | 84 | 1005.6 |
| 20260506020025 | 80 | 188 | 4.3 | 11.3 | 0.00 | 0.00 | 0.00 | 84 | 1005.4 |
| 20260506014524 | 80 | 190 | 0.9 | 7.8 | 0.00 | 0.00 | 0.00 | 83 | 1005.2 |
| 20260506013024 | 80 | 219 | 3.5 | 8.7 | 0.00 | 0.00 | 0.00 | 82 | 1005.0 |
| 20260506011527 | 80 | 171 | 1.7 | 8.7 | 0.00 | 0.00 | 0.00 | 82 | 1004.6 |
| 20260506010022 | 81 | 171 | 1.7 | 13.9 | 0.00 | 0.00 | 0.00 | 81 | 1004.5 |
| 20260506004526 | 81 | 223 | 2.6 | 29.5 | 0.00 | 0.00 | 0.00 | 80 | 1004.4 |
| 20260506003021 | 81 | 180 | 3.5 | 7.0 | 0.00 | 0.00 | 0.00 | 80 | 1004.4 |
| 20260506001521 | 81 | 219 | 3.5 | 18.2 | 0.00 | 0.00 | 0.00 | 79 | 1004.2 |
| 20260506000022 | 82 | 181 | 1.7 | 7.8 | 0.00 | 0.00 | 0.00 | 79 | 1004.4 |
| 20260505234520 | 82 | 203 | 5.2 | 31.3 | 0.00 | 0.00 | 0.00 | 78 | 1004.2 |
| 20260505233019 | 82 | 155 | 7.0 | 39.1 | 0.00 | 0.00 | 0.00 | 77 | 1004.2 |
| 20260505231527 | 82 | 238 | 12.2 | 41.7 | 0.00 | 0.00 | 0.00 | 77 | 1004.2 |
| 20260505230026 | 83 | 226 | 12.2 | 40.8 | 0.00 | 0.00 | 0.00 | 77 | 1004.3 |
| 20260505224518 | 83 | 226 | 18.2 | 52.1 | 0.00 | 0.00 | 0.00 | 76 | 1004.3 |
| 20260505223016 | 83 | 196 | 10.4 | 67.8 | 0.00 | 0.00 | 0.00 | 76 | 1004.2 |
| 20260505221514 | 83 | 213 | 3.5 | 34.8 | 0.00 | 0.00 | 0.00 | 77 | 1004.4 |
| 20260505220013 | 84 | 203 | 2.6 | 8.7 | 0.00 | 0.00 | 0.00 | 76 | 1004.5 |
| 20260505214511 | 84 | 202 | 4.3 | 13.0 | 0.00 | 0.00 | 0.00 | 75 | 1004.7 |
| 20260505213010 | 84 | 207 | 1.7 | 10.4 | 0.00 | 0.00 | 0.00 | 77 | 1004.8 |
| 20260505211509 | 84 | 148 | 4.3 | 13.0 | 0.00 | 0.00 | 0.00 | 76 | 1004.9 |
| 20260505210008 | 84 | 219 | 3.5 | 8.7 | 0.00 | 0.00 | 0.00 | 77 | 1005.1 |
| 20260505204506 | 84 | 229 | 4.3 | 9.6 | 0.00 | 0.00 | 0.00 | 76 | 1005.2 |
| 20260505203005 | 84 | 223 | 4.3 | 14.8 | 0.00 | 0.00 | 0.00 | 76 | 1005.4 |
| 20260505201504 | 84 | 190 | 3.5 | 7.0 | 0.00 | 0.00 | 0.00 | 77 | 1005.8 |
| 20260505200001 | 84 | 186 | 1.7 | 9.6 | 0.00 | 0.00 | 0.00 | 78 | 1005.9 |
| 20260505194624 | 84 | 222 | 2.6 | 9.6 | 0.00 | 0.00 | 0.00 | 77 | 1006.1 |
| 20260505193100 | 84 | 230 | 3.5 | 8.7 | 0.00 | 0.00 | 0.00 | 76 | 1006.2 |
| 20260505191559 | 83 | 231 | 2.6 | 18.2 | 0.00 | 0.00 | 0.00 | 78 | 1006.3 |
| 20260505190057 | 82 | 204 | 2.6 | 7.8 | 0.00 | 0.00 | 0.00 | 80 | 1006.3 |
| 20260505184556 | 82 | 180 | 2.6 | 9.6 | 0.00 | 0.00 | 0.00 | 79 | 1006.6 |
| 20260505183055 | 83 | 95 | 5.2 | 11.3 | 0.00 | 0.00 | 0.00 | 77 | 1006.6 |